| time (UTC) | temp F | wind direction | speed knots | gust knots | rain 1hr in | rain 24hr in | rain mn in | humidity % | barometer mb |
| 20260504174517 | 72 | 265 | 2.6 | 4.3 | 0.00 | 0.00 | 0.00 | 31 | 1012.1 |
| 20260504174017 | 72 | 214 | 1.7 | 4.3 | 0.00 | 0.00 | 0.00 | 32 | 1012.1 |
| 20260504173517 | 72 | 253 | 5.2 | 9.6 | 0.00 | 0.00 | 0.00 | 32 | 1012.2 |
| 20260504173017 | 72 | 251 | 1.7 | 4.3 | 0.00 | 0.00 | 0.00 | 32 | 1012.3 |
| 20260504172518 | 72 | 249 | 5.2 | 9.6 | 0.00 | 0.00 | 0.00 | 32 | 1012.4 |
| 20260504172017 | 72 | 208 | 1.7 | 3.5 | 0.00 | 0.00 | 0.00 | 32 | 1012.4 |
| 20260504171518 | 72 | 240 | 3.5 | 6.1 | 0.00 | 0.00 | 0.00 | 33 | 1012.4 |
| 20260504171018 | 71 | 217 | 4.3 | 9.6 | 0.00 | 0.00 | 0.00 | 33 | 1012.4 |
| 20260504170518 | 72 | 249 | 5.2 | 10.4 | 0.00 | 0.00 | 0.00 | 33 | 1012.5 |
| 20260504151019 | 67 | 188 | 1.7 | 5.2 | 0.00 | 0.00 | 0.00 | 41 | 1014.0 |
| 20260504150517 | 67 | 243 | 2.6 | 5.2 | 0.00 | 0.00 | 0.00 | 41 | 1014.0 |
| 20260504141017 | 64 | 218 | 2.6 | 4.3 | 0.00 | 0.00 | 0.00 | 50 | 1014.1 |
| 20260504140519 | 64 | 246 | 3.5 | 7.0 | 0.00 | 0.00 | 0.00 | 50 | 1014.2 |
| 20260504130517 | 59 | 249 | 5.2 | 9.6 | 0.00 | 0.00 | 0.00 | 60 | 1014.7 |
| 20260504110518 | 52 | 268 | 0.9 | 1.7 | 0.00 | 0.00 | 0.00 | 74 | 1015.1 |
| 20260504100518 | 51 | 257 | 3.5 | 5.2 | 0.00 | 0.00 | 0.00 | 71 | 1015.2 |
| 20260504081517 | 51 | 247 | 1.7 | 3.5 | 0.00 | 0.00 | 0.00 | 63 | 1015.0 |
| 20260504081017 | 51 | 285 | 1.7 | 3.5 | 0.00 | 0.00 | 0.00 | 63 | 1014.9 |
| 20260504080517 | 51 | 264 | 2.6 | 6.1 | 0.00 | 0.00 | 0.00 | 62 | 1015.0 |
| 20260504050517 | 54 | 292 | 0.9 | 1.7 | 0.00 | 0.00 | 0.00 | 52 | 1014.5 |
| 20260504050017 | 54 | 303 | 0.0 | 0.9 | 0.00 | 0.00 | 0.00 | 52 | 1014.5 |
| 20260504045517 | 54 | 266 | 1.7 | 3.5 | 0.00 | 0.00 | 0.00 | 52 | 1014.5 |
| 20260504045018 | 54 | 259 | 0.0 | 1.7 | 0.00 | 0.00 | 0.00 | 51 | 1014.5 |
| 20260504044518 | 55 | 262 | 0.9 | 2.6 | 0.00 | 0.00 | 0.00 | 51 | 1014.5 |
| 20260504044017 | 55 | 277 | 1.7 | 4.3 | 0.00 | 0.00 | 0.00 | 50 | 1014.4 |
| 20260504043517 | 55 | 274 | 0.9 | 1.7 | 0.00 | 0.00 | 0.00 | 48 | 1014.4 |
| 20260504043018 | 55 | 269 | 1.7 | 4.3 | 0.00 | 0.00 | 0.00 | 47 | 1014.4 |
| 20260504042517 | 55 | 44 | 0.9 | 1.7 | 0.00 | 0.00 | 0.00 | 46 | 1014.3 |
| 20260504042019 | 55 | 279 | 0.9 | 1.7 | 0.00 | 0.00 | 0.00 | 45 | 1014.3 |
| 20260504041518 | 55 | 277 | 1.7 | 2.6 | 0.00 | 0.00 | 0.00 | 44 | 1014.2 |
| 20260504041018 | 55 | 350 | 0.9 | 2.6 | 0.00 | 0.00 | 0.00 | 44 | 1014.2 |
| 20260504040519 | 56 | 291 | 0.0 | 1.7 | 0.00 | 0.00 | 0.00 | 43 | 1014.1 |
| 20260504040017 | 56 | 255 | 0.0 | 2.6 | 0.00 | 0.00 | 0.00 | 43 | 1014.1 |
| 20260504035519 | 56 | 314 | 0.9 | 1.7 | 0.00 | 0.00 | 0.00 | 43 | 1014.1 |
| 20260504035017 | 56 | 356 | 0.9 | 2.6 | 0.00 | 0.00 | 0.00 | 43 | 1014.0 |
| 20260504034518 | 56 | 314 | 0.0 | 0.0 | 0.00 | 0.00 | 0.00 | 42 | 1014.0 |
| 20260504034018 | 56 | 283 | 0.9 | 2.6 | 0.00 | 0.00 | 0.00 | 41 | 1014.0 |
| 20260504033517 | 56 | 354 | 0.9 | 1.7 | 0.00 | 0.00 | 0.00 | 42 | 1013.9 |
| 20260504033018 | 56 | 273 | 1.7 | 2.6 | 0.00 | 0.00 | 0.00 | 41 | 1013.9 |
| 20260504032518 | 56 | 329 | 0.9 | 2.6 | 0.00 | 0.00 | 0.00 | 40 | 1013.9 |
| 20260504032018 | 56 | 258 | 1.7 | 2.6 | 0.00 | 0.00 | 0.00 | 41 | 1013.9 |
| 20260504031517 | 56 | 254 | 0.9 | 2.6 | 0.00 | 0.00 | 0.00 | 40 | 1013.9 |
| 20260504031018 | 57 | 42 | 0.0 | 1.7 | 0.00 | 0.00 | 0.00 | 40 | 1013.8 |
| 20260504030517 | 57 | 30 | 0.0 | 1.7 | 0.00 | 0.00 | 0.00 | 40 | 1013.8 |
| 20260504030017 | 57 | 316 | 0.0 | 0.9 | 0.00 | 0.00 | 0.00 | 39 | 1013.8 |
| 20260504025517 | 57 | 280 | 1.7 | 5.2 | 0.00 | 0.00 | 0.00 | 39 | 1013.9 |
| 20260504025018 | 58 | 21 | 0.9 | 2.6 | 0.00 | 0.00 | 0.00 | 38 | 1013.9 |
| 20260504024517 | 58 | 3 | 1.7 | 4.3 | 0.00 | 0.00 | 0.00 | 38 | 1013.9 |
| 20260504024017 | 58 | 326 | 0.9 | 2.6 | 0.00 | 0.00 | 0.00 | 38 | 1013.9 |
| 20260504023517 | 58 | 317 | 1.7 | 3.5 | 0.00 | 0.00 | 0.00 | 38 | 1013.9 |
| 20260504023017 | 58 | 294 | 1.7 | 3.5 | 0.00 | 0.00 | 0.00 | 38 | 1013.9 |
| 20260504022517 | 58 | 336 | 0.9 | 2.6 | 0.00 | 0.00 | 0.00 | 38 | 1013.9 |
| 20260504022018 | 58 | 335 | 0.9 | 2.6 | 0.00 | 0.00 | 0.00 | 38 | 1013.9 |
| 20260504021517 | 58 | 269 | 1.7 | 6.1 | 0.00 | 0.00 | 0.00 | 38 | 1013.9 |
| 20260504021017 | 58 | 321 | 0.9 | 1.7 | 0.00 | 0.00 | 0.00 | 38 | 1013.9 |
| 20260504020518 | 58 | 23 | 0.9 | 2.6 | 0.00 | 0.00 | 0.00 | 38 | 1013.8 |
| 20260504020018 | 58 | 347 | 0.9 | 1.7 | 0.00 | 0.00 | 0.00 | 38 | 1013.8 |
| 20260504015517 | 58 | 350 | 0.9 | 2.6 | 0.00 | 0.00 | 0.00 | 38 | 1013.8 |
| 20260504015018 | 58 | 281 | 0.9 | 2.6 | 0.00 | 0.00 | 0.00 | 38 | 1013.8 |
| 20260504014517 | 58 | 288 | 0.9 | 3.5 | 0.00 | 0.00 | 0.00 | 37 | 1013.8 |
| 20260504014017 | 58 | 277 | 0.9 | 2.6 | 0.00 | 0.00 | 0.00 | 37 | 1013.7 |
| 20260504013518 | 58 | 289 | 0.9 | 2.6 | 0.00 | 0.00 | 0.00 | 37 | 1013.7 |
| 20260504013018 | 58 | 292 | 1.7 | 3.5 | 0.00 | 0.00 | 0.00 | 37 | 1013.6 |
| 20260504012518 | 58 | 301 | 1.7 | 3.5 | 0.00 | 0.00 | 0.00 | 37 | 1013.6 |
| 20260504012017 | 58 | 232 | 0.9 | 2.6 | 0.00 | 0.00 | 0.00 | 37 | 1013.6 |
| 20260504011517 | 58 | 231 | 0.9 | 2.6 | 0.00 | 0.00 | 0.00 | 37 | 1013.5 |
| 20260504011020 | 58 | 290 | 1.7 | 3.5 | 0.00 | 0.00 | 0.00 | 37 | 1013.4 |
| 20260504010518 | 58 | 236 | 1.7 | 3.5 | 0.00 | 0.00 | 0.00 | 37 | 1013.3 |
| 20260504005528 | 58 | 81 | 0.0 | 1.7 | 0.00 | 0.00 | 0.00 | 37 | 1013.2 |
| 20260504005018 | 59 | 295 | 0.9 | 3.5 | 0.00 | 0.00 | 0.00 | 36 | 1013.2 |
| 20260504004518 | 59 | 288 | 0.9 | 2.6 | 0.00 | 0.00 | 0.00 | 36 | 1013.1 |
| 20260504004017 | 59 | 277 | 0.0 | 1.7 | 0.00 | 0.00 | 0.00 | 36 | 1013.0 |
| 20260504003517 | 59 | 353 | 0.9 | 2.6 | 0.00 | 0.00 | 0.00 | 36 | 1012.9 |
| 20260504003017 | 59 | 264 | 1.7 | 3.5 | 0.00 | 0.00 | 0.00 | 36 | 1012.8 |
| 20260504002517 | 59 | 236 | 0.9 | 1.7 | 0.00 | 0.00 | 0.00 | 36 | 1012.8 |
| 20260504002018 | 59 | 202 | 1.7 | 2.6 | 0.00 | 0.00 | 0.00 | 36 | 1012.8 |
| 20260504001517 | 59 | 320 | 0.9 | 1.7 | 0.00 | 0.00 | 0.00 | 35 | 1012.7 |
| 20260504001017 | 60 | 275 | 1.7 | 3.5 | 0.00 | 0.00 | 0.00 | 35 | 1012.7 |
| 20260504000518 | 60 | 273 | 0.0 | 2.6 | 0.00 | 0.00 | 0.00 | 35 | 1012.7 |
| 20260504000018 | 60 | 348 | 1.7 | 3.5 | 0.00 | 0.00 | 0.00 | 35 | 1012.7 |
| 20260503235517 | 60 | 315 | 0.9 | 3.5 | 0.00 | 0.00 | 0.00 | 35 | 1012.6 |
| 20260503235018 | 60 | 13 | 0.9 | 2.6 | 0.00 | 0.00 | 0.00 | 34 | 1012.6 |
| 20260503234517 | 60 | 66 | 1.7 | 2.6 | 0.00 | 0.00 | 0.00 | 34 | 1012.6 |
| 20260503234017 | 60 | 355 | 1.7 | 4.3 | 0.00 | 0.00 | 0.00 | 34 | 1012.5 |
| 20260503233517 | 60 | 41 | 0.9 | 1.7 | 0.00 | 0.00 | 0.00 | 34 | 1012.4 |
| 20260503233017 | 60 | 0 | 1.7 | 3.5 | 0.00 | 0.00 | 0.00 | 33 | 1012.4 |
| 20260503232517 | 60 | 28 | 0.9 | 3.5 | 0.00 | 0.00 | 0.00 | 33 | 1012.4 |
| 20260503232017 | 61 | 81 | 0.9 | 2.6 | 0.00 | 0.00 | 0.00 | 33 | 1012.4 |
| 20260503231520 | 61 | 28 | 1.7 | 3.5 | 0.00 | 0.00 | 0.00 | 33 | 1012.4 |
| 20260503231017 | 61 | 7 | 0.9 | 3.5 | 0.00 | 0.00 | 0.00 | 32 | 1012.4 |
| 20260503230518 | 61 | 37 | 1.7 | 4.3 | 0.00 | 0.00 | 0.00 | 32 | 1012.3 |
| 20260503230017 | 61 | 52 | 1.7 | 3.5 | 0.00 | 0.00 | 0.00 | 32 | 1012.3 |
| 20260503225517 | 61 | 42 | 1.7 | 2.6 | 0.00 | 0.00 | 0.00 | 32 | 1012.2 |
| 20260503225018 | 61 | 57 | 0.9 | 2.6 | 0.00 | 0.00 | 0.00 | 32 | 1012.2 |
| 20260503224517 | 62 | 7 | 1.7 | 3.5 | 0.00 | 0.00 | 0.00 | 31 | 1012.1 |
| 20260503224017 | 62 | 60 | 2.6 | 5.2 | 0.00 | 0.00 | 0.00 | 31 | 1012.1 |
| 20260503223518 | 62 | 352 | 2.6 | 6.1 | 0.00 | 0.00 | 0.00 | 31 | 1012.1 |
| 20260503223018 | 63 | 38 | 1.7 | 3.5 | 0.00 | 0.00 | 0.00 | 31 | 1012.2 |
| 20260503222517 | 63 | 260 | 1.7 | 3.5 | 0.00 | 0.00 | 0.00 | 30 | 1012.2 |
| 20260503222018 | 63 | 15 | 1.7 | 3.5 | 0.00 | 0.00 | 0.00 | 30 | 1012.2 |
| 20260503221517 | 63 | 81 | 1.7 | 3.5 | 0.00 | 0.00 | 0.00 | 30 | 1012.2 |
| 20260503221017 | 63 | 78 | 0.9 | 2.6 | 0.00 | 0.00 | 0.00 | 30 | 1012.1 |
| 20260503220518 | 63 | 20 | 1.7 | 4.3 | 0.00 | 0.00 | 0.00 | 30 | 1012.2 |
| 20260503220017 | 63 | 37 | 1.7 | 6.1 | 0.00 | 0.00 | 0.00 | 30 | 1012.1 |
| 20260503215517 | 63 | 149 | 2.6 | 5.2 | 0.00 | 0.00 | 0.00 | 29 | 1012.2 |
| 20260503215017 | 63 | 7 | 2.6 | 4.3 | 0.00 | 0.00 | 0.00 | 29 | 1012.2 |
| 20260503214517 | 62 | 38 | 0.9 | 2.6 | 0.00 | 0.00 | 0.00 | 30 | 1012.2 |
| 20260503214017 | 63 | 43 | 1.7 | 2.6 | 0.00 | 0.00 | 0.00 | 30 | 1012.2 |
| 20260503213519 | 63 | 89 | 1.7 | 3.5 | 0.00 | 0.00 | 0.00 | 30 | 1012.2 |
| 20260503213017 | 63 | 316 | 1.7 | 3.5 | 0.00 | 0.00 | 0.00 | 30 | 1012.1 |
| 20260503212517 | 62 | 105 | 0.9 | 1.7 | 0.00 | 0.00 | 0.00 | 31 | 1012.1 |
| 20260503212017 | 62 | 50 | 2.6 | 5.2 | 0.00 | 0.00 | 0.00 | 30 | 1012.1 |
| 20260503211517 | 62 | 52 | 2.6 | 6.1 | 0.00 | 0.00 | 0.00 | 30 | 1012.2 |
| 20260503211017 | 62 | 49 | 2.6 | 5.2 | 0.00 | 0.00 | 0.00 | 30 | 1012.2 |
| 20260503210518 | 62 | 43 | 1.7 | 3.5 | 0.00 | 0.00 | 0.00 | 30 | 1012.2 |
| 20260503210017 | 62 | 59 | 3.5 | 7.8 | 0.00 | 0.00 | 0.00 | 31 | 1012.3 |
| 20260503205517 | 63 | 12 | 2.6 | 5.2 | 0.00 | 0.00 | 0.00 | 30 | 1012.3 |
| 20260503205017 | 62 | 32 | 1.7 | 4.3 | 0.00 | 0.00 | 0.00 | 31 | 1012.3 |
| 20260503204517 | 62 | 44 | 0.9 | 2.6 | 0.00 | 0.00 | 0.00 | 31 | 1012.3 |
| 20260503204018 | 61 | 42 | 3.5 | 5.2 | 0.00 | 0.00 | 0.00 | 31 | 1012.3 |
| 20260503203517 | 61 | 108 | 0.9 | 1.7 | 0.00 | 0.00 | 0.00 | 31 | 1012.3 |
| 20260503203018 | 61 | 34 | 3.5 | 7.8 | 0.00 | 0.00 | 0.00 | 31 | 1012.4 |
| 20260503202518 | 61 | 50 | 2.6 | 4.3 | 0.00 | 0.00 | 0.00 | 31 | 1012.3 |
| 20260503202020 | 61 | 51 | 2.6 | 7.0 | 0.00 | 0.00 | 0.00 | 31 | 1012.5 |
| 20260503201517 | 61 | 26 | 1.7 | 4.3 | 0.00 | 0.00 | 0.00 | 30 | 1012.5 |
| 20260503201017 | 62 | 46 | 5.2 | 8.7 | 0.00 | 0.00 | 0.00 | 31 | 1012.6 |
| 20260503200518 | 62 | 66 | 2.6 | 3.5 | 0.00 | 0.00 | 0.00 | 31 | 1012.5 |
| 20260503200018 | 61 | 48 | 2.6 | 4.3 | 0.00 | 0.00 | 0.00 | 31 | 1012.5 |
| 20260503195517 | 61 | 41 | 2.6 | 6.1 | 0.00 | 0.00 | 0.00 | 31 | 1012.5 |
| 20260503195017 | 61 | 41 | 2.6 | 4.3 | 0.00 | 0.00 | 0.00 | 31 | 1012.5 |
| 20260503194518 | 61 | 48 | 5.2 | 7.8 | 0.00 | 0.00 | 0.00 | 30 | 1012.6 |
| 20260503194017 | 61 | 55 | 3.5 | 7.8 | 0.00 | 0.00 | 0.00 | 30 | 1012.6 |
| 20260503193517 | 62 | 52 | 1.7 | 5.2 | 0.00 | 0.00 | 0.00 | 30 | 1012.6 |
| 20260503193017 | 61 | 58 | 1.7 | 3.5 | 0.00 | 0.00 | 0.00 | 30 | 1012.7 |
| 20260503192517 | 61 | 42 | 3.5 | 6.1 | 0.00 | 0.00 | 0.00 | 30 | 1012.6 |
| 20260503192018 | 60 | 49 | 2.6 | 5.2 | 0.00 | 0.00 | 0.00 | 31 | 1012.8 |
| 20260503191517 | 60 | 51 | 3.5 | 8.7 | 0.00 | 0.00 | 0.00 | 31 | 1012.9 |
| 20260503191018 | 59 | 40 | 1.7 | 5.2 | 0.00 | 0.00 | 0.00 | 32 | 1012.8 |
| 20260503190517 | 59 | 51 | 3.5 | 7.0 | 0.00 | 0.00 | 0.00 | 32 | 1013.0 |
| 20260503190018 | 59 | 27 | 2.6 | 6.1 | 0.00 | 0.00 | 0.00 | 32 | 1013.0 |
| 20260503185517 | 59 | 75 | 2.6 | 5.2 | 0.00 | 0.00 | 0.00 | 32 | 1013.1 |
| 20260503185017 | 59 | 58 | 2.6 | 5.2 | 0.00 | 0.00 | 0.00 | 32 | 1013.0 |
| 20260503184517 | 59 | 41 | 3.5 | 6.1 | 0.00 | 0.00 | 0.00 | 32 | 1013.1 |
| 20260503184017 | 59 | 323 | 1.7 | 6.1 | 0.00 | 0.00 | 0.00 | 32 | 1013.1 |
| 20260503183517 | 58 | 51 | 2.6 | 4.3 | 0.00 | 0.00 | 0.00 | 33 | 1013.3 |
| 20260503183017 | 59 | 56 | 4.3 | 7.0 | 0.00 | 0.00 | 0.00 | 31 | 1013.3 |
| 20260503182518 | 59 | 21 | 3.5 | 7.8 | 0.00 | 0.00 | 0.00 | 32 | 1013.4 |
| 20260503182017 | 58 | 313 | 1.7 | 4.3 | 0.00 | 0.00 | 0.00 | 32 | 1013.3 |
| 20260503181517 | 58 | 32 | 1.7 | 3.5 | 0.00 | 0.00 | 0.00 | 33 | 1013.1 |
| 20260503181017 | 57 | 41 | 3.5 | 6.1 | 0.00 | 0.00 | 0.00 | 32 | 1013.3 |
| 20260503180517 | 57 | 39 | 5.2 | 7.0 | 0.00 | 0.00 | 0.00 | 33 | 1013.4 |
| 20260503180018 | 57 | 32 | 3.5 | 7.0 | 0.00 | 0.00 | 0.00 | 34 | 1013.3 |
| 20260503175517 | 57 | 44 | 2.6 | 3.5 | 0.00 | 0.00 | 0.00 | 34 | 1013.5 |
| 20260503175018 | 57 | 52 | 3.5 | 5.2 | 0.00 | 0.00 | 0.00 | 33 | 1013.5 |